Weather History for Bartlesville, OK

Change the Weather History Date:

Wednesday, March 5, 2014

  Actual Average Record
Temperature  
Mean Temperature 32 °F -  
Max Temperature 46 °F 56 °F 88 °F (1991)
Min Temperature 19 °F 31 °F 0 °F (1960)
Degree Days  
Heating Degree Days 32    
Moisture  
Dew Point 28 °F    
Average Humidity 77    
Maximum Humidity 96    
Minimum Humidity 54    
Precipitation  
Precipitation 0.00 in - - ()
Sea Level Pressure  
Sea Level Pressure 30.16 in    
Wind  
Wind Speed 2 mph (NE)    
Max Wind Speed 9 mph    
Max Gust Speed -    
Visibility 6 miles    
Events Rain    
Averages and records for this station are not official NWS values.
T = Trace of Precipitation, MM = Missing Value Source: NWS Daily Summary

Daily Weather History Graph

Daily Weather History Graph

Search for Another Location

Airport:

Trip Planner

Search our weather history database for the weather conditions in past years. The results will help you decide how hot, cold, wet, or windy it might be!

Date:

Astronomy

Mar. 05, 2014 Rise Set
Actual Time 6:49 AM CST 6:22 PM CST
Civil Twilight 6:23 AM CST 6:48 PM CST
Nautical Twilight 5:53 AM CST 7:18 PM CST
Astronomical Twilight 5:23 AM CST 7:48 PM CST
Moon 9:23 AM CST (3/5) 11:23 PM CST (3/5)
Length of Visible Light 12h 24m
Length of Day
11h 33m
Waxing Crescent, 23% of the Moon is Illuminated
Mar 5
Waxing Crescent
Mar 8
First Quarter
Mar 16
Full
Mar 23
Last Quarter
Mar 30
New

Hourly Weather History & Observations

Time (CST) Temp. Windchill Dew Point Humidity Pressure Visibility Wind Dir Wind Speed Gust Speed Precip Events Conditions
12:53 AM 30.0 °F 26.5 °F 23.0 °F 75% 30.08 in 8.0 mi South 3.5 mph - N/A   Clear
1:53 AM 27.0 °F 20.5 °F 23.0 °F 85% 30.07 in 7.0 mi South 5.8 mph - N/A   Clear
2:53 AM 28.0 °F 22.8 °F 24.1 °F 85% 30.07 in 6.0 mi South 4.6 mph - N/A   Clear
3:53 AM 26.1 °F - 23.0 °F 88% 30.10 in 5.0 mi Calm Calm - N/A   Clear
4:53 AM 25.0 °F - 23.0 °F 92% 30.11 in 4.0 mi Calm Calm - N/A   Clear
5:53 AM 24.1 °F - 23.0 °F 96% 30.13 in 3.0 mi Calm Calm - N/A   Clear
6:20 AM 23.0 °F - 21.2 °F 93% 30.13 in 2.5 mi Calm Calm - N/A   Clear
6:53 AM 19.9 °F - 19.0 °F 96% 30.14 in 1.2 mi Calm Calm - N/A   Clear
7:40 AM 24.8 °F - 23.0 °F 93% 30.15 in 2.0 mi Calm Calm - N/A   Clear
7:53 AM 26.1 °F - 24.1 °F 92% 30.17 in 2.5 mi Calm Calm - N/A   Clear
8:53 AM 30.0 °F - 27.0 °F 88% 30.18 in 3.0 mi Calm Calm - N/A   Clear
9:53 AM 34.0 °F - 28.0 °F 79% 30.19 in 4.0 mi Calm Calm - N/A   Haze
10:53 AM 37.9 °F - 28.0 °F 68% 30.19 in 6.0 mi Calm Calm - N/A   Haze
11:53 AM 41.0 °F - 28.0 °F 60% 30.19 in 8.0 mi Calm Calm - N/A   Clear
12:53 PM 45.0 °F 42.6 °F 30.0 °F 56% 30.17 in 9.0 mi Variable 4.6 mph - N/A   Clear
1:53 PM 46.0 °F - 30.0 °F 54% 30.15 in 8.0 mi Calm Calm - N/A   Mostly Cloudy
2:53 PM 46.0 °F 42.5 °F 30.9 °F 56% 30.14 in 9.0 mi NNE 6.9 mph - N/A   Mostly Cloudy
3:53 PM 46.0 °F 42.5 °F 30.9 °F 56% 30.14 in 10.0 mi NNE 6.9 mph - N/A   Overcast
4:53 PM 46.9 °F - 30.9 °F 54% 30.14 in 10.0 mi Calm Calm - N/A   Mostly Cloudy
5:53 PM 44.1 °F 42.5 °F 30.9 °F 60% 30.17 in 9.0 mi ENE 3.5 mph - N/A   Partly Cloudy
6:53 PM 39.0 °F - 33.1 °F 79% 30.19 in 10.0 mi Calm Calm - N/A   Overcast
7:53 PM 43.0 °F 37.7 °F 33.1 °F 68% 30.21 in 6.0 mi NE 9.2 mph - 0.00 in Rain Light Rain
8:53 PM 39.0 °F 35.7 °F 35.1 °F 86% 30.24 in 5.0 mi NNW 4.6 mph - 0.00 in Rain Light Rain
9:53 PM 39.0 °F 36.8 °F 35.1 °F 86% 30.25 in 6.0 mi North 3.5 mph - 0.00 in   Overcast
10:53 PM 37.0 °F 32.4 °F 32.0 °F 82% 30.25 in 6.0 mi North 5.8 mph - N/A   Haze
11:53 PM 36.0 °F 33.3 °F 30.9 °F 82% 30.26 in 6.0 mi Variable 3.5 mph - N/A   Haze